Year,Month,Day,Hour,Minute,Value (Times are PST for temperature in C)
2011,11,02,00,00,3.00
2011,11,02,00,01,3.00
2011,11,02,00,02,3.00
2011,11,02,00,03,2.90
2011,11,02,00,04,2.90
2011,11,02,00,05,2.90
2011,11,02,00,06,2.90
2011,11,02,00,07,2.90
2011,11,02,00,08,2.90
2011,11,02,00,09,2.90
2011,11,02,00,10,2.90
2011,11,02,00,11,2.80
2011,11,02,00,12,2.80
2011,11,02,00,13,2.80
2011,11,02,00,14,2.80
2011,11,02,00,15,2.80
2011,11,02,00,16,2.80
2011,11,02,00,17,2.80
2011,11,02,00,18,2.70
2011,11,02,00,19,2.70
2011,11,02,00,20,2.70
2011,11,02,00,21,2.70
2011,11,02,00,22,2.70
2011,11,02,00,23,2.70
2011,11,02,00,24,2.70
2011,11,02,00,25,2.70
2011,11,02,00,26,2.70
2011,11,02,00,27,2.70
2011,11,02,00,28,2.70
2011,11,02,00,29,2.70
2011,11,02,00,30,2.70
2011,11,02,00,31,2.70
2011,11,02,00,32,2.70
2011,11,02,00,33,2.70
2011,11,02,00,34,2.70
2011,11,02,00,35,2.70
2011,11,02,00,36,2.70
2011,11,02,00,37,2.70
2011,11,02,00,38,2.70
2011,11,02,00,39,2.70
2011,11,02,00,40,2.70
2011,11,02,00,41,2.70
2011,11,02,00,42,2.70
2011,11,02,00,43,2.70
2011,11,02,00,44,2.60
2011,11,02,00,45,2.60
2011,11,02,00,46,2.60
2011,11,02,00,47,2.60
2011,11,02,00,48,2.60
2011,11,02,00,49,2.60
2011,11,02,00,50,2.60
2011,11,02,00,51,2.60
2011,11,02,00,52,2.60
2011,11,02,00,53,2.60
2011,11,02,00,54,2.50
2011,11,02,00,55,2.50
2011,11,02,00,56,2.50
2011,11,02,00,57,2.50
2011,11,02,00,58,2.50
2011,11,02,00,59,2.50
2011,11,02,01,00,2.50
2011,11,02,01,01,2.40
2011,11,02,01,02,2.40
2011,11,02,01,03,2.40
2011,11,02,01,04,2.40
2011,11,02,01,05,2.40
2011,11,02,01,06,2.40
2011,11,02,01,07,2.40
2011,11,02,01,08,2.40
2011,11,02,01,09,2.40
2011,11,02,01,10,2.40
2011,11,02,01,11,2.40
2011,11,02,01,12,2.40
2011,11,02,01,13,2.30
2011,11,02,01,14,2.30
2011,11,02,01,15,2.30
2011,11,02,01,16,2.30
2011,11,02,01,17,2.30
2011,11,02,01,18,2.30
2011,11,02,01,19,2.30
2011,11,02,01,20,2.20
2011,11,02,01,21,2.20
2011,11,02,01,22,2.20
2011,11,02,01,23,2.20
2011,11,02,01,24,2.20
2011,11,02,01,25,2.20
2011,11,02,01,26,2.20
2011,11,02,01,27,2.20
2011,11,02,01,28,2.20
2011,11,02,01,29,2.10
2011,11,02,01,30,2.10
2011,11,02,01,31,2.10
2011,11,02,01,32,2.10
2011,11,02,01,33,2.10
2011,11,02,01,34,2.10
2011,11,02,01,35,2.10
2011,11,02,01,36,2.10
2011,11,02,01,37,2.10
2011,11,02,01,38,2.10
2011,11,02,01,39,2.10
2011,11,02,01,40,2.10
2011,11,02,01,41,2.10
2011,11,02,01,42,2.10
2011,11,02,01,43,2.10
2011,11,02,01,44,2.10
2011,11,02,01,45,2.10
2011,11,02,01,46,2.10
2011,11,02,01,47,2.00
2011,11,02,01,48,2.00
2011,11,02,01,49,2.00
2011,11,02,01,50,2.00
2011,11,02,01,51,2.00
2011,11,02,01,52,2.00
2011,11,02,01,53,1.90
2011,11,02,01,54,1.90
2011,11,02,01,55,1.90
2011,11,02,01,56,1.90
2011,11,02,01,57,1.90
2011,11,02,01,58,1.90
2011,11,02,01,59,1.90
2011,11,02,02,00,1.90
2011,11,02,02,01,1.90
2011,11,02,02,02,1.90
2011,11,02,02,03,1.90
2011,11,02,02,04,1.90
2011,11,02,02,05,1.90
2011,11,02,02,06,1.90
2011,11,02,02,07,1.90
2011,11,02,02,08,1.90
2011,11,02,02,09,1.90
2011,11,02,02,10,1.90
2011,11,02,02,11,1.90
2011,11,02,02,12,1.90
2011,11,02,02,13,1.90
2011,11,02,02,14,1.90
2011,11,02,02,15,1.80
2011,11,02,02,16,1.80
2011,11,02,02,17,1.80
2011,11,02,02,18,1.80
2011,11,02,02,19,1.80
2011,11,02,02,20,1.80
2011,11,02,02,21,1.80
2011,11,02,02,22,1.80
2011,11,02,02,23,1.80
2011,11,02,02,24,1.80
2011,11,02,02,25,1.80
2011,11,02,02,26,1.80
2011,11,02,02,27,1.80
2011,11,02,02,28,1.80
2011,11,02,02,29,1.80
2011,11,02,02,30,1.80
2011,11,02,02,31,1.80
2011,11,02,02,32,1.80
2011,11,02,02,33,1.80
2011,11,02,02,34,1.80
2011,11,02,02,35,1.80
2011,11,02,02,36,1.80
2011,11,02,02,37,1.80
2011,11,02,02,38,1.80
2011,11,02,02,39,1.80
2011,11,02,02,40,1.80
2011,11,02,02,41,1.80
2011,11,02,02,42,1.80
2011,11,02,02,43,1.80
2011,11,02,02,44,1.80
2011,11,02,02,45,1.80
2011,11,02,02,46,1.80
2011,11,02,02,47,1.80
2011,11,02,02,48,1.80
2011,11,02,02,49,1.80
2011,11,02,02,50,1.80
2011,11,02,02,51,1.80
2011,11,02,02,52,1.80
2011,11,02,02,53,1.80
2011,11,02,02,54,1.80
2011,11,02,02,55,1.80
2011,11,02,02,56,1.80
2011,11,02,02,57,1.80
2011,11,02,02,58,1.80
2011,11,02,02,59,1.80
2011,11,02,03,00,1.80
2011,11,02,03,01,1.80
2011,11,02,03,02,1.80
2011,11,02,03,03,1.80
2011,11,02,03,04,1.80
2011,11,02,03,05,1.70
2011,11,02,03,06,1.80
2011,11,02,03,07,1.80
2011,11,02,03,08,1.80
2011,11,02,03,09,1.80
2011,11,02,03,10,1.80
2011,11,02,03,11,1.80
2011,11,02,03,12,1.80
2011,11,02,03,13,1.80
2011,11,02,03,14,1.80
2011,11,02,03,15,1.80
2011,11,02,03,16,1.80
2011,11,02,03,17,1.80
2011,11,02,03,18,1.80
2011,11,02,03,19,1.80
2011,11,02,03,20,1.80
2011,11,02,03,21,1.80
2011,11,02,03,22,1.80
2011,11,02,03,23,1.80
2011,11,02,03,24,1.80
2011,11,02,03,25,1.80
2011,11,02,03,26,1.80
2011,11,02,03,27,1.80
2011,11,02,03,28,1.80
2011,11,02,03,29,1.80
2011,11,02,03,30,1.80
2011,11,02,03,31,1.90
2011,11,02,03,32,1.90
2011,11,02,03,33,1.90
2011,11,02,03,34,1.90
2011,11,02,03,35,1.90
2011,11,02,03,36,1.90
2011,11,02,03,37,1.90
2011,11,02,03,38,1.90
2011,11,02,03,39,1.90
2011,11,02,03,40,1.90
2011,11,02,03,41,1.90
2011,11,02,03,42,1.90
2011,11,02,03,43,1.90
2011,11,02,03,44,1.90
2011,11,02,03,45,1.90
2011,11,02,03,46,1.90
2011,11,02,03,47,1.90
2011,11,02,03,48,1.90
2011,11,02,03,49,1.90
2011,11,02,03,50,1.90
2011,11,02,03,51,1.90
2011,11,02,03,52,1.90
2011,11,02,03,53,1.90
2011,11,02,03,54,1.90
2011,11,02,03,55,1.80
2011,11,02,03,56,1.80
2011,11,02,03,57,1.80
2011,11,02,03,58,1.80
2011,11,02,03,59,1.80
2011,11,02,04,00,1.80
2011,11,02,04,01,1.80
2011,11,02,04,02,1.80
2011,11,02,04,03,1.80
2011,11,02,04,04,1.80
2011,11,02,04,05,1.80
2011,11,02,04,06,1.80
2011,11,02,04,07,1.80
2011,11,02,04,08,1.80
2011,11,02,04,09,1.80
2011,11,02,04,10,1.80
2011,11,02,04,11,1.80
2011,11,02,04,12,1.80
2011,11,02,04,13,1.80
2011,11,02,04,14,1.80
2011,11,02,04,15,1.80
2011,11,02,04,16,1.80
2011,11,02,04,17,1.80
2011,11,02,04,18,1.80
2011,11,02,04,19,1.80
2011,11,02,04,20,1.80
2011,11,02,04,21,1.90
2011,11,02,04,22,1.90
2011,11,02,04,23,1.90
2011,11,02,04,24,1.90
2011,11,02,04,25,1.90
2011,11,02,04,26,1.90
2011,11,02,04,27,1.90
2011,11,02,04,28,1.90
2011,11,02,04,29,1.90
2011,11,02,04,30,1.90
2011,11,02,04,31,1.90
2011,11,02,04,32,1.90
2011,11,02,04,33,1.90
2011,11,02,04,34,2.00
2011,11,02,04,35,2.00
2011,11,02,04,36,2.00
2011,11,02,04,37,2.00
2011,11,02,04,38,2.00
2011,11,02,04,39,2.00
2011,11,02,04,40,2.00
2011,11,02,04,41,2.00
2011,11,02,04,42,2.00
2011,11,02,04,43,2.00
2011,11,02,04,44,2.00
2011,11,02,04,45,1.90
2011,11,02,04,46,1.90
2011,11,02,04,47,1.90
2011,11,02,04,48,1.90
2011,11,02,04,49,1.90
2011,11,02,04,50,1.90
2011,11,02,04,51,1.90
2011,11,02,04,52,1.90
2011,11,02,04,53,1.90
2011,11,02,04,54,1.90
2011,11,02,04,55,1.90
2011,11,02,04,56,1.90
2011,11,02,04,57,1.90
2011,11,02,04,58,1.90
2011,11,02,04,59,1.90
2011,11,02,05,00,1.90
2011,11,02,05,01,1.90
2011,11,02,05,02,1.90
2011,11,02,05,03,1.90
2011,11,02,05,04,1.90
2011,11,02,05,05,1.90
2011,11,02,05,06,2.00
2011,11,02,05,07,2.00
2011,11,02,05,08,2.00
2011,11,02,05,09,2.00
2011,11,02,05,10,2.00
2011,11,02,05,11,2.00
2011,11,02,05,12,2.00
2011,11,02,05,13,2.00
2011,11,02,05,14,2.00
2011,11,02,05,15,2.00
2011,11,02,05,16,2.00
2011,11,02,05,17,2.00
2011,11,02,05,18,2.00
2011,11,02,05,19,2.00
2011,11,02,05,20,2.00
2011,11,02,05,21,2.00
2011,11,02,05,22,2.00
2011,11,02,05,23,2.00
2011,11,02,05,24,2.00
2011,11,02,05,25,2.00
2011,11,02,05,26,2.00
2011,11,02,05,27,2.00
2011,11,02,05,28,2.00
2011,11,02,05,29,2.00
2011,11,02,05,30,2.00
2011,11,02,05,31,2.00
2011,11,02,05,32,2.00
2011,11,02,05,33,2.00
2011,11,02,05,34,2.00
2011,11,02,05,35,2.10
2011,11,02,05,36,2.10
2011,11,02,05,37,2.10
2011,11,02,05,38,2.10
2011,11,02,05,39,2.10
2011,11,02,05,40,2.10
2011,11,02,05,41,2.10
2011,11,02,05,42,2.10
2011,11,02,05,43,2.10
2011,11,02,05,44,2.10
2011,11,02,05,45,2.10
2011,11,02,05,46,2.10
2011,11,02,05,47,2.10
2011,11,02,05,48,2.10
2011,11,02,05,49,2.10
2011,11,02,05,50,2.10
2011,11,02,05,51,2.10
2011,11,02,05,52,2.10
2011,11,02,05,53,2.10
2011,11,02,05,54,2.10
2011,11,02,05,55,2.10
2011,11,02,05,56,2.10
2011,11,02,05,57,2.10
2011,11,02,05,58,2.10
2011,11,02,05,59,2.20
2011,11,02,06,00,2.20
2011,11,02,06,01,2.10
2011,11,02,06,02,2.10
2011,11,02,06,03,2.10
2011,11,02,06,04,2.10
2011,11,02,06,05,2.10
2011,11,02,06,06,2.10
2011,11,02,06,07,2.10
2011,11,02,06,08,2.10
2011,11,02,06,09,2.10
2011,11,02,06,10,2.10
2011,11,02,06,11,2.10
2011,11,02,06,12,2.10
2011,11,02,06,13,2.10
2011,11,02,06,14,2.10
2011,11,02,06,15,2.10
2011,11,02,06,16,2.10
2011,11,02,06,17,2.00
2011,11,02,06,18,2.00
2011,11,02,06,19,2.00
2011,11,02,06,20,2.00
2011,11,02,06,21,2.00
2011,11,02,06,22,2.00
2011,11,02,06,23,1.90
2011,11,02,06,24,1.90
2011,11,02,06,25,1.90
2011,11,02,06,26,1.90
2011,11,02,06,27,1.90
2011,11,02,06,28,1.90
2011,11,02,06,29,1.90
2011,11,02,06,30,1.90
2011,11,02,06,31,1.90
2011,11,02,06,32,1.90
2011,11,02,06,33,1.90
2011,11,02,06,34,1.90
2011,11,02,06,35,1.90
2011,11,02,06,36,1.90
2011,11,02,06,37,1.90
2011,11,02,06,38,1.90
2011,11,02,06,39,1.90
2011,11,02,06,40,1.90
2011,11,02,06,41,1.90
2011,11,02,06,42,1.90
2011,11,02,06,43,1.90
2011,11,02,06,44,1.80
2011,11,02,06,45,1.80
2011,11,02,06,46,1.80
2011,11,02,06,47,1.90
2011,11,02,06,48,1.80
2011,11,02,06,49,1.80
2011,11,02,06,50,1.80
2011,11,02,06,51,1.80
2011,11,02,06,52,1.80
2011,11,02,06,53,1.80
2011,11,02,06,54,1.80
2011,11,02,06,55,1.80
2011,11,02,06,56,1.90
2011,11,02,06,57,1.90
2011,11,02,06,58,1.90
2011,11,02,06,59,1.90
2011,11,02,07,00,1.90
2011,11,02,07,01,1.90
2011,11,02,07,02,1.90
2011,11,02,07,03,1.90
2011,11,02,07,04,1.90
2011,11,02,07,05,1.90
2011,11,02,07,06,1.90
2011,11,02,07,07,1.90
2011,11,02,07,08,1.90
2011,11,02,07,09,1.90
2011,11,02,07,10,1.90
2011,11,02,07,11,1.90
2011,11,02,07,12,1.90
2011,11,02,07,13,1.90
2011,11,02,07,14,1.90
2011,11,02,07,15,1.90
2011,11,02,07,16,1.90
2011,11,02,07,17,1.90
2011,11,02,07,18,1.90
2011,11,02,07,19,1.90
2011,11,02,07,20,1.90
2011,11,02,07,21,1.90
2011,11,02,07,22,1.90
2011,11,02,07,23,1.90
2011,11,02,07,24,1.90
2011,11,02,07,25,1.90
2011,11,02,07,26,1.90
2011,11,02,07,27,1.90
2011,11,02,07,28,1.90
2011,11,02,07,29,1.90
2011,11,02,07,30,1.80
2011,11,02,07,31,1.80
2011,11,02,07,32,1.80
2011,11,02,07,33,1.80
2011,11,02,07,34,1.70
2011,11,02,07,35,1.70
2011,11,02,07,36,1.70
2011,11,02,07,37,1.70
2011,11,02,07,38,1.70
2011,11,02,07,39,1.60
2011,11,02,07,40,1.60
2011,11,02,07,41,1.60
2011,11,02,07,42,1.60
2011,11,02,07,43,1.60
2011,11,02,07,44,1.60
2011,11,02,07,45,1.60
2011,11,02,07,46,1.50
2011,11,02,07,47,1.50
2011,11,02,07,48,1.50
2011,11,02,07,49,1.50
2011,11,02,07,50,1.40
2011,11,02,07,51,1.40
2011,11,02,07,52,1.40
2011,11,02,07,53,1.40
2011,11,02,07,54,1.40
2011,11,02,07,55,1.40
2011,11,02,07,56,1.40
2011,11,02,07,57,1.30
2011,11,02,07,58,1.30
2011,11,02,07,59,1.30
2011,11,02,08,00,1.30
2011,11,02,08,01,1.30
2011,11,02,08,02,1.30
2011,11,02,08,03,1.30
2011,11,02,08,04,1.30
2011,11,02,08,05,1.30
2011,11,02,08,06,1.30
2011,11,02,08,07,1.30
2011,11,02,08,08,1.30
2011,11,02,08,09,1.30
2011,11,02,08,10,1.30
2011,11,02,08,11,1.30
2011,11,02,08,12,1.30
2011,11,02,08,13,1.30
2011,11,02,08,14,1.30
2011,11,02,08,15,1.30
2011,11,02,08,16,1.30
2011,11,02,08,17,1.30
2011,11,02,08,18,1.30
2011,11,02,08,19,1.30
2011,11,02,08,20,1.30
2011,11,02,08,21,1.30
2011,11,02,08,22,1.30
2011,11,02,08,23,1.30
2011,11,02,08,24,1.30
2011,11,02,08,25,1.30
2011,11,02,08,26,1.30
2011,11,02,08,27,1.30
2011,11,02,08,28,1.30
2011,11,02,08,29,1.30
2011,11,02,08,30,1.30
2011,11,02,08,31,1.30
2011,11,02,08,32,1.30
2011,11,02,08,33,1.30
2011,11,02,08,34,1.30
2011,11,02,08,35,1.30
2011,11,02,08,36,1.30
2011,11,02,08,37,1.40
2011,11,02,08,38,1.40
2011,11,02,08,39,1.40
2011,11,02,08,40,1.40
2011,11,02,08,41,1.50
2011,11,02,08,42,1.50
2011,11,02,08,43,1.50
2011,11,02,08,44,1.50
2011,11,02,08,45,1.50
2011,11,02,08,46,1.50
2011,11,02,08,47,1.50
2011,11,02,08,48,1.50
2011,11,02,08,49,1.50
2011,11,02,08,50,1.50
2011,11,02,08,51,1.50
2011,11,02,08,52,1.50
2011,11,02,08,53,1.50
2011,11,02,08,54,1.50
2011,11,02,08,55,1.50
2011,11,02,08,56,1.50
2011,11,02,08,57,1.50
2011,11,02,08,58,1.60
2011,11,02,08,59,1.60
2011,11,02,09,00,1.60
2011,11,02,09,01,1.60
2011,11,02,09,02,1.60
2011,11,02,09,03,1.60
2011,11,02,09,04,1.70
2011,11,02,09,05,1.70
2011,11,02,09,06,1.70
2011,11,02,09,07,1.70
2011,11,02,09,08,1.70
2011,11,02,09,09,1.70
2011,11,02,09,10,1.80
2011,11,02,09,11,1.80
2011,11,02,09,12,1.80
2011,11,02,09,13,1.80
2011,11,02,09,14,1.80
2011,11,02,09,15,1.80
2011,11,02,09,16,1.80
2011,11,02,09,17,1.80
2011,11,02,09,18,1.90
2011,11,02,09,19,1.90
2011,11,02,09,20,1.90
2011,11,02,09,21,1.90
2011,11,02,09,22,1.90
2011,11,02,09,23,1.90
2011,11,02,09,24,1.90
2011,11,02,09,25,2.00
2011,11,02,09,26,2.00
2011,11,02,09,27,2.00
2011,11,02,09,28,2.00
2011,11,02,09,29,2.10
2011,11,02,09,30,2.10
2011,11,02,09,31,2.10
2011,11,02,09,32,2.10
2011,11,02,09,33,2.10
2011,11,02,09,34,2.10
2011,11,02,09,35,2.10
2011,11,02,09,36,2.20
2011,11,02,09,37,2.20
2011,11,02,09,38,2.20
2011,11,02,09,39,2.20
2011,11,02,09,40,2.20
2011,11,02,09,41,2.20
2011,11,02,09,42,2.30
2011,11,02,09,43,2.30
2011,11,02,09,44,2.30
2011,11,02,09,45,2.30
2011,11,02,09,46,2.30
2011,11,02,09,47,2.30
2011,11,02,09,48,2.40
2011,11,02,09,49,2.40
2011,11,02,09,50,2.40
2011,11,02,09,51,2.50
2011,11,02,09,52,2.50
2011,11,02,09,53,2.50
2011,11,02,09,54,2.60
2011,11,02,09,55,2.60
2011,11,02,09,56,2.60
2011,11,02,09,57,2.60
2011,11,02,09,58,2.70
2011,11,02,09,59,2.70
2011,11,02,10,00,2.70
2011,11,02,10,01,2.70
2011,11,02,10,02,2.70
2011,11,02,10,03,2.80
2011,11,02,10,04,2.80
2011,11,02,10,05,2.80
2011,11,02,10,06,2.80
2011,11,02,10,07,2.80
2011,11,02,10,08,2.90
2011,11,02,10,09,2.90
2011,11,02,10,10,2.90
2011,11,02,10,11,3.00
2011,11,02,10,12,3.00
2011,11,02,10,13,3.00
2011,11,02,10,14,3.10
2011,11,02,10,15,3.10
2011,11,02,10,16,3.10
2011,11,02,10,17,3.10
2011,11,02,10,18,3.20
2011,11,02,10,19,3.20
2011,11,02,10,20,3.20
2011,11,02,10,21,3.20
2011,11,02,10,22,3.20
2011,11,02,10,23,3.20
2011,11,02,10,24,3.30
2011,11,02,10,25,3.30
2011,11,02,10,26,3.30
2011,11,02,10,27,3.30
2011,11,02,10,28,3.30
2011,11,02,10,29,3.30
2011,11,02,10,30,3.40
2011,11,02,10,31,3.40
2011,11,02,10,32,3.40
2011,11,02,10,33,3.40
2011,11,02,10,34,3.40
2011,11,02,10,35,3.50
2011,11,02,10,36,3.50
2011,11,02,10,37,3.50
2011,11,02,10,38,3.60
2011,11,02,10,39,3.60
2011,11,02,10,40,3.60
2011,11,02,10,41,3.60
2011,11,02,10,42,3.60
2011,11,02,10,43,3.70
2011,11,02,10,44,3.70
2011,11,02,10,45,3.70
2011,11,02,10,46,3.70
2011,11,02,10,47,3.70
2011,11,02,10,48,3.70
2011,11,02,10,49,3.80
2011,11,02,10,50,3.80
2011,11,02,10,51,3.80
2011,11,02,10,52,3.80
2011,11,02,10,53,3.80
2011,11,02,10,54,3.80
2011,11,02,10,55,3.90
2011,11,02,10,56,3.90
2011,11,02,10,57,3.90
2011,11,02,10,58,3.90
2011,11,02,10,59,3.90
2011,11,02,11,00,4.00
2011,11,02,11,01,4.00
2011,11,02,11,02,4.00
2011,11,02,11,03,4.10
2011,11,02,11,04,4.10
2011,11,02,11,05,4.10
2011,11,02,11,06,4.10
2011,11,02,11,07,4.10
2011,11,02,11,08,4.10
2011,11,02,11,09,4.20
2011,11,02,11,10,4.20
2011,11,02,11,11,4.20
2011,11,02,11,12,4.20
2011,11,02,11,13,4.30
2011,11,02,11,14,4.30
2011,11,02,11,15,4.30
2011,11,02,11,16,4.40
2011,11,02,11,17,4.40
2011,11,02,11,18,4.50
2011,11,02,11,19,4.50
2011,11,02,11,20,4.50
2011,11,02,11,21,4.60
2011,11,02,11,22,4.60
2011,11,02,11,23,4.60
2011,11,02,11,24,4.70
2011,11,02,11,25,4.70
2011,11,02,11,26,4.70
2011,11,02,11,27,4.70
2011,11,02,11,28,4.80
2011,11,02,11,29,4.80
2011,11,02,11,30,4.80
2011,11,02,11,31,4.80
2011,11,02,11,32,4.90
2011,11,02,11,33,4.90
2011,11,02,11,34,4.90
2011,11,02,11,35,5.00
2011,11,02,11,36,5.00
2011,11,02,11,37,5.10
2011,11,02,11,38,5.10
2011,11,02,11,39,5.20
2011,11,02,11,40,5.20
2011,11,02,11,41,5.20
2011,11,02,11,42,5.30
2011,11,02,11,43,5.30
2011,11,02,11,44,5.30
2011,11,02,11,45,5.30
2011,11,02,11,46,5.40
2011,11,02,11,47,5.40
2011,11,02,11,48,5.40
2011,11,02,11,49,5.40
2011,11,02,11,50,5.40
2011,11,02,11,51,5.40
2011,11,02,11,52,5.50
2011,11,02,11,53,5.50
2011,11,02,11,54,5.50
2011,11,02,11,55,5.50
2011,11,02,11,56,5.60
2011,11,02,11,57,5.60
2011,11,02,11,58,5.60
2011,11,02,11,59,5.60
2011,11,02,12,00,5.70
2011,11,02,12,01,5.70
2011,11,02,12,02,5.70
2011,11,02,12,03,5.70
2011,11,02,12,04,5.80
2011,11,02,12,05,5.80
2011,11,02,12,06,5.80
2011,11,02,12,07,5.80
2011,11,02,12,08,5.90
2011,11,02,12,09,5.90
2011,11,02,12,10,5.90
2011,11,02,12,11,5.90
2011,11,02,12,12,6.00
2011,11,02,12,13,6.00
2011,11,02,12,14,6.00
2011,11,02,12,15,6.10
2011,11,02,12,16,6.10
2011,11,02,12,17,6.10
2011,11,02,12,18,6.10
2011,11,02,12,19,6.10
2011,11,02,12,20,6.20
2011,11,02,12,21,6.20
2011,11,02,12,22,6.20
2011,11,02,12,23,6.20
2011,11,02,12,24,6.30
2011,11,02,12,25,6.30
2011,11,02,12,26,6.30
2011,11,02,12,27,6.30
2011,11,02,12,28,6.30
2011,11,02,12,29,6.30
2011,11,02,12,30,6.40
2011,11,02,12,31,6.40
2011,11,02,12,32,6.40
2011,11,02,12,33,6.40
2011,11,02,12,34,6.40
2011,11,02,12,35,6.40
2011,11,02,12,36,6.40
2011,11,02,12,37,6.40
2011,11,02,12,38,6.40
2011,11,02,12,39,6.50
2011,11,02,12,40,6.50
2011,11,02,12,41,6.50
2011,11,02,12,42,6.50
2011,11,02,12,43,6.50
2011,11,02,12,44,6.60
2011,11,02,12,45,6.60
2011,11,02,12,46,6.60
2011,11,02,12,47,6.60
2011,11,02,12,48,6.60
2011,11,02,12,49,6.60
2011,11,02,12,50,6.60
2011,11,02,12,51,6.60
2011,11,02,12,52,6.60
2011,11,02,12,53,6.60
2011,11,02,12,54,6.70
2011,11,02,12,55,6.70
2011,11,02,12,56,6.70
2011,11,02,12,57,6.70
2011,11,02,12,58,6.70
2011,11,02,12,59,6.70
2011,11,02,13,00,6.70
2011,11,02,13,01,6.70
2011,11,02,13,02,6.70
2011,11,02,13,03,6.80
2011,11,02,13,04,6.80
2011,11,02,13,05,6.80
2011,11,02,13,06,6.80
2011,11,02,13,07,6.80
2011,11,02,13,08,6.80
2011,11,02,13,09,6.80
2011,11,02,13,10,6.80
2011,11,02,13,11,6.80
2011,11,02,13,12,6.90
2011,11,02,13,13,6.90
2011,11,02,13,14,6.90
2011,11,02,13,15,6.90
2011,11,02,13,16,6.90
2011,11,02,13,17,6.90
2011,11,02,13,18,6.90
2011,11,02,13,19,7.00
2011,11,02,13,20,7.00
2011,11,02,13,21,7.00
2011,11,02,13,22,7.00
2011,11,02,13,23,7.00
2011,11,02,13,24,7.00
2011,11,02,13,25,7.10
2011,11,02,13,26,7.10
2011,11,02,13,27,7.10
2011,11,02,13,28,7.10
2011,11,02,13,29,7.10
2011,11,02,13,30,7.10
2011,11,02,13,31,7.10
2011,11,02,13,32,7.10
2011,11,02,13,33,7.10
2011,11,02,13,34,7.10
2011,11,02,13,35,7.10
2011,11,02,13,36,7.10
2011,11,02,13,37,7.10
2011,11,02,13,38,7.10
2011,11,02,13,39,7.10
2011,11,02,13,40,7.10
2011,11,02,13,41,7.10
2011,11,02,13,42,7.10
2011,11,02,13,43,7.10
2011,11,02,13,44,7.10
2011,11,02,13,45,7.10
2011,11,02,13,46,7.10
2011,11,02,13,47,7.10
2011,11,02,13,48,7.10
2011,11,02,13,49,7.00
2011,11,02,13,50,7.00
2011,11,02,13,51,7.00
2011,11,02,13,52,7.00
2011,11,02,13,53,6.90
2011,11,02,13,54,6.90
2011,11,02,13,55,6.90
2011,11,02,13,56,6.90
2011,11,02,13,57,6.80
2011,11,02,13,58,6.80
2011,11,02,13,59,6.80
2011,11,02,14,00,6.80
2011,11,02,14,01,6.70
2011,11,02,14,02,6.70
2011,11,02,14,03,6.70
2011,11,02,14,04,6.70
2011,11,02,14,05,6.60
2011,11,02,14,06,6.60
2011,11,02,14,07,6.60
2011,11,02,14,08,6.50
2011,11,02,14,09,6.50
2011,11,02,14,10,6.50
2011,11,02,14,11,6.40
2011,11,02,14,12,6.40
2011,11,02,14,13,6.40
2011,11,02,14,14,6.30
2011,11,02,14,15,6.30
2011,11,02,14,16,6.30
2011,11,02,14,17,6.30
2011,11,02,14,18,6.20
2011,11,02,14,19,6.20
2011,11,02,14,20,6.20
2011,11,02,14,21,6.20
2011,11,02,14,22,6.10
2011,11,02,14,23,6.10
2011,11,02,14,24,6.10
2011,11,02,14,25,6.00
2011,11,02,14,28,5.90
2011,11,02,14,29,5.90
2011,11,02,14,30,5.90
2011,11,02,14,31,5.90
2011,11,02,14,32,5.90
2011,11,02,14,33,5.80
2011,11,02,14,34,5.80
2011,11,02,14,35,5.80
2011,11,02,14,36,5.80
2011,11,02,14,37,5.80
2011,11,02,14,38,5.80
2011,11,02,14,39,5.80
2011,11,02,14,40,5.80
2011,11,02,14,41,5.80
2011,11,02,14,42,5.80
2011,11,02,14,43,5.80
2011,11,02,14,44,5.80
2011,11,02,14,45,5.80
2011,11,02,14,46,5.80
2011,11,02,14,47,5.80
2011,11,02,14,48,5.80
2011,11,02,14,49,5.80
2011,11,02,14,50,5.80
2011,11,02,14,51,5.80
2011,11,02,14,52,5.80
2011,11,02,14,53,5.80
2011,11,02,14,54,5.80
2011,11,02,14,55,5.80
2011,11,02,14,56,5.80
2011,11,02,14,57,5.80
2011,11,02,14,58,5.80
2011,11,02,14,59,5.80
2011,11,02,15,00,5.80
2011,11,02,15,01,5.80
2011,11,02,15,02,5.80
2011,11,02,15,03,5.80
2011,11,02,15,04,5.80
2011,11,02,15,05,5.80
2011,11,02,15,06,5.80
2011,11,02,15,07,5.80
2011,11,02,15,08,5.80
2011,11,02,15,09,5.80
2011,11,02,15,10,5.80
2011,11,02,15,11,5.80
2011,11,02,15,12,5.80
2011,11,02,15,13,5.80
2011,11,02,15,14,5.80
2011,11,02,15,15,5.80
2011,11,02,15,16,5.80
2011,11,02,15,17,5.80
2011,11,02,15,18,5.80
2011,11,02,15,19,5.80
2011,11,02,15,20,5.80
2011,11,02,15,21,5.80
2011,11,02,15,22,5.80
2011,11,02,15,23,5.80
2011,11,02,15,24,5.80
2011,11,02,15,25,5.80
2011,11,02,15,26,5.80
2011,11,02,15,27,5.80
2011,11,02,15,28,5.80
2011,11,02,15,29,5.80
2011,11,02,15,30,5.80
2011,11,02,15,31,5.80
2011,11,02,15,32,5.80
2011,11,02,15,33,5.80
2011,11,02,15,34,5.80
2011,11,02,15,35,5.80
2011,11,02,15,36,5.90
2011,11,02,15,37,5.90
2011,11,02,15,38,5.90
2011,11,02,15,39,5.90
2011,11,02,15,40,5.90
2011,11,02,15,41,5.90
2011,11,02,15,42,5.90
2011,11,02,15,43,5.90
2011,11,02,15,44,5.90
2011,11,02,15,45,5.90
2011,11,02,15,46,5.90
2011,11,02,15,47,5.90
2011,11,02,15,48,5.90
2011,11,02,15,49,5.90
2011,11,02,15,50,5.90
2011,11,02,15,51,6.00
2011,11,02,15,52,6.00
2011,11,02,15,53,6.00
2011,11,02,15,54,6.10
2011,11,02,15,55,6.10
2011,11,02,15,56,6.10
2011,11,02,15,57,6.10
2011,11,02,15,58,6.20
2011,11,02,15,59,6.20
2011,11,02,16,00,6.20
2011,11,02,16,01,6.20
2011,11,02,16,02,6.20
2011,11,02,16,03,6.20
2011,11,02,16,04,6.20
2011,11,02,16,05,6.20
2011,11,02,16,06,6.20
2011,11,02,16,07,6.20
2011,11,02,16,08,6.20
2011,11,02,16,09,6.30
2011,11,02,16,10,6.30
2011,11,02,16,11,6.30
2011,11,02,16,12,6.30
2011,11,02,16,13,6.30
2011,11,02,16,14,6.30
2011,11,02,16,15,6.30
2011,11,02,16,16,6.40
2011,11,02,16,17,6.40
2011,11,02,16,18,6.50
2011,11,02,16,19,6.50
2011,11,02,16,20,6.50
2011,11,02,16,21,6.60
2011,11,02,16,22,6.60
2011,11,02,16,23,6.60
2011,11,02,16,24,6.60
2011,11,02,16,25,6.60
2011,11,02,16,26,6.60
2011,11,02,16,27,6.60
2011,11,02,16,28,6.60
2011,11,02,16,29,6.60
2011,11,02,16,30,6.60
2011,11,02,16,31,6.60
2011,11,02,16,32,6.60
2011,11,02,16,33,6.60
2011,11,02,16,34,6.60
2011,11,02,16,35,6.70
2011,11,02,16,36,6.70
2011,11,02,16,37,6.70
2011,11,02,16,38,6.70
2011,11,02,16,39,6.70
2011,11,02,16,40,6.70
2011,11,02,16,41,6.80
2011,11,02,16,42,6.70
2011,11,02,16,43,6.70
2011,11,02,16,44,6.70
2011,11,02,16,45,6.70
2011,11,02,16,46,6.70
2011,11,02,16,47,6.70
2011,11,02,16,48,6.70
2011,11,02,16,49,6.70
2011,11,02,16,50,6.70
2011,11,02,16,51,6.70
2011,11,02,16,52,6.70
2011,11,02,16,53,6.70
2011,11,02,16,54,6.70
2011,11,02,16,55,6.70
2011,11,02,16,56,6.70
2011,11,02,16,57,6.70
2011,11,02,16,58,6.70
2011,11,02,16,59,6.70
2011,11,02,17,00,6.70
2011,11,02,17,01,6.70
2011,11,02,17,02,6.70
2011,11,02,17,03,6.70
2011,11,02,17,04,6.70
2011,11,02,17,05,6.70
2011,11,02,17,06,6.70
2011,11,02,17,07,6.70
2011,11,02,17,08,6.70
2011,11,02,17,09,6.60
2011,11,02,17,10,6.60
2011,11,02,17,11,6.60
2011,11,02,17,12,6.60
2011,11,02,17,13,6.60
2011,11,02,17,14,6.60
2011,11,02,17,15,6.60
2011,11,02,17,16,6.60
2011,11,02,17,17,6.60
2011,11,02,17,18,6.60
2011,11,02,17,19,6.60
2011,11,02,17,20,6.60
2011,11,02,17,21,6.60
2011,11,02,17,22,6.60
2011,11,02,17,23,6.60
2011,11,02,17,24,6.60
2011,11,02,17,25,6.60
2011,11,02,17,26,6.60
2011,11,02,17,27,6.60
2011,11,02,17,28,6.60
2011,11,02,17,29,6.60
2011,11,02,17,30,6.60
2011,11,02,17,31,6.60
2011,11,02,17,32,6.60
2011,11,02,17,33,6.60
2011,11,02,17,34,6.60
2011,11,02,17,35,6.70
2011,11,02,17,36,6.70
2011,11,02,17,37,6.70
2011,11,02,17,38,6.70
2011,11,02,17,39,6.70
2011,11,02,17,40,6.70
2011,11,02,17,41,6.70
2011,11,02,17,42,6.70
2011,11,02,17,43,6.70
2011,11,02,17,44,6.70
2011,11,02,17,45,6.70
2011,11,02,17,46,6.80
2011,11,02,17,47,6.80
2011,11,02,17,48,6.80
2011,11,02,17,49,6.80
2011,11,02,17,50,6.80
2011,11,02,17,51,6.80
2011,11,02,17,52,6.80
2011,11,02,17,53,6.80
2011,11,02,17,54,6.80
2011,11,02,17,55,6.80
2011,11,02,17,56,6.80
2011,11,02,17,57,6.80
2011,11,02,17,58,6.80
2011,11,02,17,59,6.80
2011,11,02,18,00,6.70
2011,11,02,18,01,6.80
2011,11,02,18,02,6.70
2011,11,02,18,03,6.80
2011,11,02,18,04,6.80
2011,11,02,18,05,6.80
2011,11,02,18,06,6.80
2011,11,02,18,07,6.80
2011,11,02,18,08,6.80